www.pogodaiklimat.ru

Погода и климат >> Архив погоды >> Россия >> Красноярский край >> Ужур


ПОГОДА в Ужуре

  • Прогноз погоды в Ужуре
  • Монитор погоды в Ужуре

АРХИВ ПОГОДЫ в Ужуре

Время (UTC), дата Ветер
(напр.,м/с)
 
Видим.   Явления Облачность Т
(С)
Тd
(С)
f
(%)
Тe
(С)
Тes
(С)
Комфортность P
(гПа)
Po
(гПа)
Тmin
(С)
Tmax
(С)
R
(мм)
R24
(мм)
S
(см)
00 14.03 Ю 2 10 км 8/1 600 м
[Cu med, cong Ci fib]
+0.8 -6.8 57 -2 -2 1023.2 975.2 +0.3 0
03 14.03 ЮЗ 4 20 км 9/4 600 м
[Cu med, cong Ac trans Ci fib]
+3.9 -4.7 53 0 +1 1023.5 976.0
06 14.03 ЮЗ 4
{10}
20 км 9/3 600 м
[Cu hum Ac trans Ci fib]
+7.1 -3.6 46 +4 +6 1022.8 975.9
09 14.03 З 2 20 км 9/0
[Ac trans Ci fib]
+9.4 -5.6 34 +8 +10 1022.7 976.1
12 14.03 З 4 10 км 9/0
[Ac trans Ci fib]
+6.2 -7.2 38 +3 +3 1024.8 977.6 +9.6
15 14.03 ЮЗ 3 10 км 9/0
[Ac trans Ci fib]
+4.7 -5.4 48 +2 +2 1025.3 977.8
18 14.03 ЮВ 2 10 км 9/3 600 м
[Cu med, cong Ac trans Ci fib]
+2.7 -4.9 57 0 0 1024.2 976.5
21 14.03 ЮВ 3 10 км 9/9 600 м
[Cu med, cong]
+0.9 -5.4 63 -3 -3 1023.4 975.4
00 15.03 Ю 2 10 км 8/0
[Cs]
-2.2 -5.6 77 -6 -6 1023.1 974.5 -2.4 0
03 15.03 ЮВ 3 20 км 8/0
[Ci fib]
+4.5 -4.7 51 +2 +4 1021.1 973.8 -2.7
06 15.03 ЮВ 3 20 км 6/0
[Ci fib]
+10.0 -7.3 29 +9 +14 1018.4 972.1
09 15.03 Ю 3 20 км 6/0
[Ci fib]
+14.3 -12.0 15 +14 +16 1014.9 969.4
12 15.03 Ю 3 20 км 4/0
[Ci fib]
+10.4 -10.8 21 +9 +9 1014.9 968.8 +14.3
15 15.03 Ю 1 10 км ясно -1.2 -7.8 61 -3 -3 1017.1 969.0
18 15.03 Ю 2 10 км ясно -4.9 -10.1 67 -9 -9 1017.0 968.2
21 15.03 Ю 2 10 км ясно -5.8 -10.2 71 -10 -10 1016.4 967.6
00 16.03 ЮВ 1 10 км 3/0
[Ci fib]
-4.7 -9.5 69 -7 -7 1015.7 967.1 -6.8 0
03 16.03 Ю 2 50 км 9/9 600 м
[Cu med, cong]
+3.1 -5.7 52 +1 +1 1013.0 965.9
06 16.03 ЮЗ 3
{10}
20 км 10/0
[As op]
+8.4 -5.7 36 +7 +8 1011.4 965.2
09 16.03 штиль 0
{12}
20 км 9/9 600 м
[Cu med, cong]
+8.0 -3.9 43 +8 +8 1011.0 964.8
12 16.03 З 3 20 км 9/9 600 м
[Cu med, cong]
+5.0 -3.3 55 +2 +2 1011.9 965.1 +9.1
15 16.03 З 3 10 км 3/0
[Ci fib]
+1.0 -8.7 48 -3 -3 1014.6 967.0
18 16.03 З 4
{10}
10 км ясно -1.5 -10.7 49 -7 -7 1016.1 968.0
21 16.03 З 3
{10}
10 км ясно -3.5 -12.2 51 -8 -8 1017.0 968.5
00 17.03 З 2 10 км 3/3 600 м
[Cu med, cong]
-5.6 -13.0 56 -9 -9 1018.2 969.3 -5.6 0
03 17.03 З 3 20 км 9/5 600 м
[Cu med, cong Ci fib]
-3.3 -13.0 47 -8 -7 1018.4 969.9 -5.8
06 17.03 СЗ 3 10 км 9/9 600 м
[Cb calv]
-3.4 -9.8 61 -8 -8 1018.8 970.3
09 17.03 С 4 20 км {ливн. осадки} 9/8 600 м
[Cb calv Ci fib]
-3.8 -8.3 71 -10 -9 1019.2 970.6
12 17.03 С 2 10 км в посл. час ливневой снег 9/8 600 м
[Cb calv Ci fib]
-6.1 -8.4 84 -10 -10 1021.6 972.5 -2.9 0.4
15 17.03 С 1 10 км 9/0
[Ci fib]
-9.9 -11.3 89 -12 -12 1024.6 974.6
18 17.03 Ю 1 10 км 3/0
[Ci fib]
-14.2 -16.2 85 -17 -17 1027.2 976.2
21 17.03 Ю 2 10 км ясно -15.6 -17.8 83 -21 -21 1029.5 978.1
00 18.03 штиль 0 10 км 9/6 600 м
[Cb calv Ci fib]
-13.7 -16.1 82 -14 -14 1031.2 980.2
03 18.03 СЗ 3 10 км 3/0
[Ci fib]
-6.2 -10.2 73 -12 -9 1031.6 981.9
06 18.03 СЗ 4 20 км 4/4 600 м
[Cu med, cong]
-3.4 -10.2 59 -9 -6 1031.8 982.7
09 18.03 СЗ 4 20 км 6/6 600 м
[Cu med, cong]
-2.6 -11.2 52 -8 -7 1031.9 982.9
12 18.03 СЗ 1 20 км 3/1 600 м
[Cu hum Ci fib]
-3.8 -11.1 57 -6 -6 1032.7 983.4 -2.0
15 18.03 ЮВ 1 10 км 1/0
[Ci fib]
-10.5 -13.4 79 -13 -13 1034.5 983.9
18 18.03 В 1 10 км 9/0
[Ac trans Cs]
-11.3 -13.7 82 -14 -14 1034.7 984.0
21 18.03 ЮВ 1 10 км 6/0
[Ci fib]
-12.2 -14.2 85 -14 -14 1034.2 983.3
00 19.03 В 1 10 км 6/0
[Ci fib]
-12.7 -14.9 84 -15 -15 1034.0 983.0 -13.3 0
03 19.03 В 1 20 км 8/0
[Cs]
-5.5 -10.6 67 -8 -4 1032.1 982.6
06 19.03 З 3 20 км 9/9 600 м
[Cu med, cong]
-1.8 -11.1 49 -6 -6 1030.1 981.3
09 19.03 СЗ 2 10 км {ливн. осадки} 9/9 600 м
[Cb calv]
-1.8 -8.6 60 -5 -5 1029.2 980.4
12 19.03 С 1 10 км {ливн. осадки} 10/0
[As op]
-3.1 -7.2 73 -5 -5 1029.4 980.4 -1.6 0.0
15 19.03 СЗ 1 10 км 9/0
[Cs]
-4.0 -7.4 77 -6 -6 1030.7 981.5
18 19.03 СЗ 2 10 км {ливн. осадки} 9/0
[Cs]
-5.3 -8.7 77 -9 -9 1031.4 981.9
21 19.03 штиль 0 10 км слаб. ливневой снег 10/10 600 м
[Cb calv]
-6.4 -8.6 84 -7 -7 1032.0 982.3
00 20.03 З 1 10 км слаб. ливневой снег 10/10 600 м
[Cb calv]
-7.3 -8.8 89 -10 -10 1033.5 983.5 -7.9 0.5 1
03 20.03 СЗ 1 10 км {ливн. осадки} 10/0
[As op]
-4.8 -7.9 79 -7 -6 1034.1 984.6 -9.0
06 20.03 СЗ 2 10 км слаб. ливневой снег 10/10 600 м
[Cb calv]
-3.0 -7.3 72 -7 -7 1034.2 985.0
09 20.03 СЗ 2 10 км {ливн. осадки} 10/10 600 м
[Cb calv]
-2.6 -8.2 65 -6 -6 1034.0 984.9
12 20.03 С 3 10 км {ливн. осадки} 9/9 600 м
[Cu med, cong]
-3.8 -8.4 70 -9 -9 1034.8 985.4 -2.3 0.0
15 20.03 СЗ 1 10 км 9/9 600 м
[Cu med, cong]
-6.7 -9.0 84 -9 -9 1035.7 985.8
18 20.03 Ю 1 10 км 9/9 600 м
[Cu med, cong]
-6.6 -8.8 84 -9 -9 1035.3 985.4

 

Местоположение метеостанции Ужур (Красноярский край, Россия): широта 55.30 долгота 89.82 высота над уровнем моря 387 м.

В архиве по умолчанию представлена погода в Ужуре за последнюю неделю. Архивные данные за месяц целиком и за предыдущие месяцы, начиная с января 2011 года, Вы можете получить, выбрав интересующий диапазон дат из раскрывающегося списка и нажав кнопку "Ввод!".


*Определитесь, кто Вы:
робот инопланетянин человек

Внимание! Время в таблицах - всемирное. Для получения местного времени необходимо прибавить поправку, которая равна 7 ч.

Смотрите также архив погоды в соседних городах и на ближайших метеорологических станциях:

Погода в Копьево-2 (Хакасия, Россия) (30 км)
Погода в Шарыпово (Красноярский край, Россия) (47 км)
Погода в Светлолобово (Красноярский край, Россия) (68 км)
Погода в Назарово (Красноярский край, Россия) (87 км)
Погода в Ненастной (Хакасия, Россия) (88 км)
Погода в Шире (Хакасия, Россия) (89 км)
Погода в Первомайском (Хакасия, Россия) (104 км)
Погода в Боготоле (Красноярский край, Россия) (105 км)
Погода в Тисуле (Кемеровская область, Россия) (108 км)
Погода в Коммунаре (Хакасия, Россия) (113 км)

Пояснения к столбцам:

Ветер - указаны скорость ветра в м/с - средняя за 10 мин, порывы в срок и между сроками (в фигурных скобках) и направление, откуда дует ветер: С - северный, СВ - северо-восточный, В - восточный, ЮВ - юго-восточный, Ю - южный, ЮЗ - юго-западный, З - западный, СЗ - северо-западный.
Видимость - горизонтальная дальность видимости в метрах или километрах. При видимости от 1 до 10 км при отсутствии осадков обычно наблюдается дымка, при ухудшении видимости до 1 км и менее - туман. В сухую погоду видимость может ухудшаться дымом, пылью или мглою.
Явления - указаны атмосферные явления, наблюдавшиеся в срок или в последний час перед сроком; фигурными скобками обозначены явления, наблюдавшиеся между сроками (за 1-3 часа до срока); квадратными скобками обозначены град или гололедные отложения с указанием их диаметра в мм.
Облачность - указаны через наклонную черту общая и нижняя облачность в баллах и высота нижней границы облаков в метрах; квадратными скобками обозначены формы облаков: Ci - перистые, Cs - перисто-слоистые, Cc - перисто-кучевые, Ac - высококучевые, As - высокослоистые, Sc - слоисто-кучевые, Ns - слоисто-дождевые, Cu - кучевые, Cb - кучево-дождевые. Подробнее классификацию облаков см. в Атласе облаков (PDF).
T - Температура воздуха - температура, измеренная на высоте 2 м над землей.
Td - Температура точки росы - температура, при понижении до которой содержащийся в воздухе водяной пар достигнет насыщения.
f - Относительная влажность воздуха - влажноcть воздуха, измеренная на высоте 2 м над землей.
Te - Эффективная температура - температура, которую ощущает одетый по сезону человек в тени. Характеристика душности погоды. При расчете учитывается влияние влажности воздуха и скорости ветра на теплоощущения человека.
Tes - Эффективная температура на солнце - температура, которую ощущает человек, с поправкой на солнечный нагрев. Характеристика знойности погоды. Зависит от высоты солнца над горизонтом, облачности и скорости ветра. Ночью, в пасмурную погоду, а также при ветре 12 м/с и более поправка равна нулю.
P - Атмосферное давление - приведенное к уровню моря атмосферное давление.
Po - Атмосферное давление - измеренное на уровне метеостанции атмосферное давление.
Tmin - Минимальная температура - минимум температуры воздуха на высоте 2 м над землей.
Tmax - Максимальная температура - максимум температуры воздуха на высоте 2 м над землей.
R - Количество осадков - Количество выпавших осадков за период времени, мм. При наведении курсора мыши на число - период времени, за который выпало указанное количество осадков.
R24 - Количество осадков - Количество выпавших осадков за 24 часа, мм.
S - Снежный покров - Высота снежного покрова, см. При наведении курсора мыши на число - состояние снежного покрова и степень покрытия местности в баллах.